TimeEST,TemperatureF,Dew PointF,Humidity,Sea Level PressureIn,VisibilityMPH,Wind Direction,Wind SpeedMPH,Gust SpeedMPH,PrecipitationIn,Events,Conditions,WindDirDegrees,DateUTC
12:52 AM,62.1,61.0,96,30.10,6.0,NNW,6.9,-,0.03,Rain,Light Rain,340,2012-12-13 05:52:00
1:52 AM,60.1,59.0,96,30.09,9.0,North,11.5,18.4,0.02,,Overcast,350,2012-12-13 06:52:00
2:15 AM,59.0,59.0,100,30.10,9.0,NNW,9.2,-,N/A,,Overcast,340,2012-12-13 07:15:00
2:52 AM,57.9,57.0,97,30.10,7.0,NNW,6.9,16.1,0.01,Rain,Light Rain,330,2012-12-13 07:52:00
3:52 AM,55.0,55.0,100,30.11,6.0,NNW,8.1,-,0.00,,Overcast,340,2012-12-13 08:52:00
4:52 AM,54.0,53.1,97,30.12,8.0,North,10.4,19.6,N/A,,Overcast,350,2012-12-13 09:52:00
5:52 AM,53.1,53.1,100,30.14,7.0,North,8.1,-,N/A,,Overcast,350,2012-12-13 10:52:00
6:03 AM,53.6,53.6,100,30.15,8.0,NNW,8.1,-,N/A,,Overcast,340,2012-12-13 11:03:00
6:32 AM,53.6,53.6,100,30.17,7.0,NNW,6.9,-,0.00,Rain,Light Rain,340,2012-12-13 11:32:00
6:52 AM,53.1,52.0,96,30.18,3.0,NNW,11.5,18.4,0.03,Rain,Light Rain,340,2012-12-13 11:52:00
7:23 AM,51.8,51.8,100,30.20,4.0,North,12.7,-,0.00,,Overcast,350,2012-12-13 12:23:00
7:52 AM,51.1,51.1,100,30.22,4.0,NNW,10.4,16.1,0.00,,Overcast,340,2012-12-13 12:52:00
8:52 AM,52.0,51.1,97,30.23,6.0,North,15.0,20.7,N/A,,Overcast,360,2012-12-13 13:52:00
9:06 AM,51.8,51.8,100,30.24,7.0,North,16.1,23.0,N/A,,Overcast,360,2012-12-13 14:06:00
9:52 AM,52.0,50.0,93,30.26,10.0,North,12.7,20.7,N/A,,Overcast,360,2012-12-13 14:52:00
10:52 AM,51.1,50.0,96,30.26,7.0,North,11.5,17.3,N/A,,Overcast,350,2012-12-13 15:52:00
11:52 AM,52.0,50.0,93,30.26,10.0,North,17.3,-,N/A,,Overcast,360,2012-12-13 16:52:00
12:52 PM,52.0,48.9,89,30.24,10.0,North,15.0,24.2,N/A,,Overcast,360,2012-12-13 17:52:00
1:52 PM,51.1,48.9,92,30.24,10.0,North,11.5,16.1,N/A,,Overcast,360,2012-12-13 18:52:00
2:52 PM,50.0,48.9,96,30.24,3.0,NNW,9.2,-,N/A,,Overcast,340,2012-12-13 19:52:00
3:52 PM,51.1,48.9,92,30.23,6.0,North,16.1,23.0,N/A,,Overcast,360,2012-12-13 20:52:00
4:52 PM,50.0,48.0,93,30.24,9.0,North,17.3,21.9,N/A,,Overcast,360,2012-12-13 21:52:00
5:52 PM,50.0,48.0,93,30.25,10.0,North,10.4,-,N/A,,Overcast,360,2012-12-13 22:52:00
6:52 PM,50.0,48.9,96,30.26,9.0,North,17.3,23.0,N/A,,Overcast,10,2012-12-13 23:52:00
7:52 PM,51.1,48.9,92,30.27,9.0,NNE,12.7,21.9,N/A,,Overcast,20,2012-12-14 00:52:00
8:52 PM,52.0,50.0,93,30.27,7.0,North,12.7,19.6,N/A,,Overcast,10,2012-12-14 01:52:00
9:52 PM,51.1,50.0,96,30.27,3.0,North,9.2,17.3,0.00,,Overcast,350,2012-12-14 02:52:00
10:35 PM,50.0,50.0,100,30.28,4.0,North,9.2,-,0.00,Rain,Light Rain,350,2012-12-14 03:35:00
10:52 PM,51.1,50.0,96,30.27,5.0,NNW,5.8,-,0.00,Rain,Light Rain,340,2012-12-14 03:52:00
11:21 PM,51.8,51.8,100,30.27,3.0,NNW,6.9,-,0.00,,Overcast,340,2012-12-14 04:21:00
11:52 PM,52.0,51.1,97,30.26,6.0,NW,4.6,-,0.00,,Overcast,320,2012-12-14 04:52:00